Location: Newark
(33.2833°N, 8.3333°W)
Time: 05:10:18
(UTC+00:00)

Envisat - Pass Details

Date: 17 September 2019
Orbit: 764 x 766 km, 98.1° (Epoch: 16 October)

Event Time Altitude Azimuth Distance (km) Brightness Sun altitude
Rises 19:30:42 0° 190° (S) 3,216 6.2 -11.9°
Reaches altitude 10° 19:33:13 10° 200° (SSW) 2,294 5.6 -12.4°
Maximum altitude 19:37:41 32° 263° (W) 1,302 4.9 -13.3°
Drops below altitude 10° 19:42:12 10° 325° (NW) 2,306 6.2 -14.2°
Sets 19:44:45 0° 336° (NNW) 3,236 6.8 -14.8°
